Hourly Data Report for February 25, 2018

MIRAMICHI RCS
NEW BRUNSWICK

47°00'34.000" N
65°27'54.000" W
33.00 m
8100989
71744
ACQ

Download Data

Hourly Data (February 2018)
Hourly Data Report for February 25, 2018
TIME
LST
Temp Definition
°C
Dew Point Definition
°C
Rel Hum Definition
%
Precip. Amount Definition
mm

Wind Dir Definition
10's deg

Wind Spd Definition
km/h
Visibility Definition
km
Stn Press Definition
kPa
Hmdx Definition


Wind Chill Definition


Weather Definition


00:00 -4.2 -15.1 42 0.0 34 11   102.13   -9 LegendNANA
01:00 -5.4 -14.5 49 0.0 33 9   102.25   -9 LegendNANA
02:00 -6.5 -14.9 51 0.0 31 9   102.33   -11 LegendNANA
03:00 -7.5 -15.1 54 0.0 32 7   102.43   -11 LegendNANA
04:00 -8.5 -15.5 57 0.0 36 6   102.50   -12 LegendNANA
05:00 -9.3 -15.7 60 0.0 36 7   102.56   -13 LegendNANA
06:00 -9.9 -16.1 61 0.2 36 6   102.59   -13 LegendNANA
07:00 -10.6 -16.2 63 0.0 35 5   102.64   -14 LegendNANA
08:00 -10.2 -15.9 63 0.0 36 3   102.67   -12 LegendNANA
09:00 -8.7 -15.0 60 0.0 35 1   102.69   -9 LegendNANA
10:00 -8.1 -13.6 64 0.0 10 6   102.72   -11 LegendNANA
11:00 -6.0 -11.7 64 0.0 8 9   102.71   -10 LegendNANA
12:00 -5.5 -10.6 67 0.0 13 13   102.63   -11 LegendNANA
13:00 -5.7 -11.3 64 0.0 10 18   102.59   -12 LegendNANA
14:00 -5.5 -11.3 63 0.0 11 12   102.46   -10 LegendNANA
15:00 -5.1 -11.8 59 0.0 13 17   102.29   -11 LegendNANA
16:00 -5.3 -10.9 65 0.0 15 16   102.23   -11 LegendNANA
17:00 -5.6 -10.7 67 0.0 13 14   102.19   -11 LegendNANA
18:00 -6.0 -11.2 66 0.0 11 15   102.02   -12 LegendNANA
19:00 -6.0 -10.8 69 0.0 11 11   102.08   -11 LegendNANA
20:00 -6.3 -9.6 78 0.0 11 12   102.02   -11 LegendNANA
21:00 -6.7 -8.4 88 0.6 12 14   101.95   -12 LegendNANA
22:00 -6.4 -7.9 89 0.7 12 13   101.87   -12 LegendNANA
23:00 -5.9 -7.6 88 0.0 13 14   101.75   -11 LegendNANA

Notes on Data Quality.

Legend

  • E = Estimated
  • M = Missing
  • NA = Not Available*
  • [empty] = Indicates an unobserved value
Date modified: